Regional Weather Roundup
Issued by NWS

Home | Current Version | Previous Version | Graphics & Text | Print | Product List | Glossary On
Versions: 1 2 3 4 5 6 7 8 9 10 11 12 13 14 15 16 17 18 19 20 21 22 23 24 25 26 27 28 29 30 31 32 33 34 35 36 37 38 39 40 41 42 43 44 45 46 47 48 49 50
000
ASUS43 KMPX 200410
RWRMN
WEATHER ROUNDUP FOR MINNESOTA
NATIONAL WEATHER SERVICE TWIN CITIES/CHANHASSEN MN
1000 PM CST SUN NOV 19 2017


NOTE: "FAIR" INDICATES FEW OR NO CLOUDS BELOW 12,000 FEET WITH NO
SIGNIFICANT WEATHER AND/OR OBSTRUCTIONS TO VISIBILITY. N/A MEANS
CURRENT SKY AND/OR WEATHER CONDITIONS ARE NOT AVAILABLE.

MNZ060>063-068>070-200500-
   Twin Cities Metro

CITY           SKY/WX    TMP DP  RH WIND       PRES   REMARKS
TWIN CITIES    CLOUDY    38  26  62 SW6       29.81F
ST PAUL        CLOUDY    29  26  89 CALM      29.83F
CRYSTAL        CLOUDY    36  23  59 S6        29.80F
BLAINE         CLOUDY    36  27  69 S7        29.79F
LAKEVILLE      CLOUDY    37  27  65 SW5       29.81F
EDEN PRAIRIE   CLOUDY    37  25  61 SW9       29.80F
SOUTH ST PAUL  CLOUDY    34  26  70 CALM      29.81F
LAKE ELMO      FAIR      30  27  86 S6        29.82F WCI  24
$$
MNZ001>005-007-008-013>017-022>024-027-028-200500-
   Northwest Minnesota

CITY           SKY/WX    TMP DP  RH WIND       PRES   REMARKS
BEMIDJI        CLOUDY    16  13  90 CALM      29.70F
HALLOCK        CLOUDY    12  10  92 E3        29.69F
ROSEAU         CLOUDY    18  12  79 SE3       29.70F
WARROAD        CLOUDY    18  12  79 CALM      29.71F
THIEF RVR FALL CLOUDY    20  18  92 SE3       29.71F
CROOKSTON      CLOUDY    21  19  93 SE7       29.71F WCI  13
FOSSTON        CLOUDY    19  16  86 S3        29.71F
DETROIT LAKES  CLOUDY    28  27  93 SW5       29.73S WCI  23
MOORHEAD       CLOUDY    25  19  80 CALM      29.73F
PARK RAPIDS    CLEAR     24  20  84 CALM      29.70F
MAHNOMEN       FAIR      24  20  87 S7        29.71F WCI  16
$$
MNZ006-009>011-018-025>026-200500-
   North Central Minnesota

CITY           SKY/WX    TMP DP  RH WIND       PRES   REMARKS
BAUDETTE       CLOUDY    15  10  80 SE6       29.71F WCI   6
FLAG ISLAND    CLOUDY    18  16  93 CALM      29.70F
INTL FALLS     CLOUDY    13   9  84 SE3       29.74F
WASKISH        CLOUDY    14  12  92 SE3       29.72S
BIG FORK       CLOUDY    10   7  85 CALM      29.73F
LONGVILLE      CLEAR     16  16 100 CALM      29.72F
GRAND RAPIDS   CLEAR     15  13  91 CALM      29.75F
CRANE LAKE     CLEAR      9   7  92 CALM      29.78F
ORR            CLOUDY    12   9  85 CALM      29.72F
COOK           PTCLDY    12  10  92 CALM      29.75F
WALKER         FAIR      27  22  80 CALM      29.71F
$$
MNZ012-019>021-037-200500-
   Northeast Minnesota

CITY           SKY/WX    TMP DP  RH WIND       PRES   REMARKS
DULUTH         CLEAR     19  15  84 SE6       29.75F WCI  11
ELY            CLEAR     10  10 100 CALM      29.76F
HIBBING        CLOUDY     9   8  96 CALM      29.75F
EVELETH        CLOUDY    12   9  85 CALM      29.76F
DULUTH HARBOR  CLOUDY    27  21  80 CALM      29.80F
TWO HARBORS    CLOUDY    18  12  79 CALM      29.77S
SILVER BAY     CLOUDY    12  12 100 CALM      29.78S
GRAND MARAIS     N/A     23  15  71 W3        29.82F
G MARAIS ARPRT CLOUDY    12   7  79 W3        29.74F
$$
MNZ029>031-032-039>041-046>048-054>057-064-200500-
   West Central Minnesota

CITY           SKY/WX    TMP DP  RH WIND       PRES   REMARKS
FERGUS FALLS   CLEAR     28  21  74 S5        29.76S WCI  23
WHEATON        CLOUDY    25  19  80 S3        29.76F
MORRIS         CLOUDY    34  25  69 CALM      29.74F
ALEXANDRIA     CLOUDY    31  24  75 SW8       29.75F WCI  23
ELBOW LAKE     FAIR      29  24  82 S6        29.74F WCI  23
WADENA         CLEAR     21  19  93 CALM      29.72F
GLENWOOD       CLOUDY    32  25  74 SW6       29.75F WCI  26
APPLETON       CLOUDY    36  25  64 SW6       29.75F
BENSON         CLOUDY    30  23  74 W5        29.77F WCI  25
ORTONVILLE     CLOUDY    36  25  64 MISG      29.74F
MADISON        CLOUDY    39  27  60 SW5       29.76F
WILLMAR        FAIR      34  27  75 CALM      29.78F
$$
MNZ033>034-036-042>043-049>051-058-059-200500-
   Central Minnesota

CITY           SKY/WX    TMP DP  RH WIND       PRES   REMARKS
ST CLOUD       CLOUDY    23  21  92 CALM      29.77F
SAUK CENTRE    FAIR      34  26  71 SW6       29.76F WCI  29
PAYNESVILLE    CLOUDY    34  27  75 SW5       29.77F WCI  30
AITKIN         CLEAR     19  18  93 CALM      29.72F
PINE RIVER     CLEAR     19  18  93 CALM      29.76F
BRAINERD       CLEAR     26  21  81 SW3       29.73F
STAPLES        CLEAR     21  21 100 S3        29.73F
LONG PRAIRIE   FAIR      28  23  80 S3        29.75F
LITTLE FALLS   CLEAR     28  21  74 CALM      29.76F
LITCHFIELD     CLOUDY    34  27  75 CALM      29.78F
BUFFALO        CLOUDY    34  24  67 S3        29.80F
MAPLE LAKE     CLOUDY    35  27  72 S3        29.80S
HUTCHINSON     CLOUDY    32  26  78 CALM      29.80F
$$
MNZ037-044-045-052-053-200500-
   East Central Minnesota

CITY           SKY/WX    TMP DP  RH WIND       PRES   REMARKS
PRINCETON      CLOUDY    23  19  86 CALM      29.78F
MORA           CLEAR     21  19  93 CALM      29.79F
CAMBRIDGE      CLEAR     27  19  74 CALM      29.79F
RUSH CITY      CLEAR     26  21  80 S3        29.79F
MOOSE LAKE     CLEAR     19  18  93 CALM      29.75F
HINCKLEY       FAIR      21  19  93 CALM      29.77F
CLOQUET        CLEAR     18  14  86 CALM      29.75F
MCGREGOR       CLEAR     21  19  93 E3        29.75F
$$
MNZ071>073-080-081-089-090-097-098-200500-
   Southwest Minnesota

CITY           SKY/WX    TMP DP  RH WIND       PRES   REMARKS
MONTEVIDEO     CLOUDY    34  23  64 SW6       29.76F WCI  29
GRANITE FALLS  CLOUDY    38  27  64 S8        29.79F
CANBY          CLOUDY    46  25  44 SW5       29.76F
MARSHALL       CLOUDY    39  24  55 S6        29.77F
REDWOOD FALLS  CLOUDY    35  23  61 S9        29.78F WCI  28
OLIVIA         CLOUDY    34  27  75 S7        29.77F WCI  28
PIPESTONE      CLOUDY    34  25  69 S5        29.78F WCI  30
WINDOM         CLOUDY    36  19  51 S5        29.81F
WORTHINGTON    CLOUDY    37  25  61 S10       29.82F
JACKSON        PTCLDY    34  28  80 CALM      29.83F
SLAYTON        CLOUDY    34  25  68 S13       29.80F WCI  25
$$
MNZ065>067-074>077-082>085-091>093-200500-
   South Central Minnesota

CITY           SKY/WX    TMP DP  RH WIND       PRES   REMARKS
MANKATO        CLOUDY    34  25  69 SE5       29.83F WCI  30
NEW ULM        CLOUDY    34  25  69 CALM      29.81F
ST JAMES       CLOUDY    37  27  65 S8        29.82F
FAIRMONT       CLOUDY    36  28  73 SW12      29.83F
GLENCOE        CLOUDY    35  27  72 S5        29.79F WCI  31
FARIBAULT      CLOUDY    36  27  69 S5        29.84F
OWATONNA       CLOUDY    36  28  75 S10       29.84F
WASECA         CLOUDY    34  28  80 S9        29.85F WCI  26
ALBERT LEA     CLOUDY    37  27  65 S8        29.85F
$$
MNZ078>079-086>088-094>096-200500-
   Southeast Minnesota

CITY           SKY/WX    TMP DP  RH WIND       PRES   REMARKS
ROCHESTER      CLOUDY    33  27  78 S14       29.87F WCI  23
RED WING       CLOUDY    32  25  74 CALM      29.83F
STANTON        CLOUDY    35  28  74 S6        29.82F WCI  30
DODGE CENTER   CLOUDY    36  27  69 S15       29.85F
WINONA         CLOUDY    36  27  69 SW5       29.89F
AUSTIN         CLOUDY    34  27  75 S8        29.86F WCI  27
PRESTON        CLOUDY    33  26  73 SW14      29.89F WCI  23
$$
ABBREVIATIONS USED IN REMARKS
   TC - TEMPERATURES IN CELSIUS
  WCI - WIND CHILL INDEX
   HX - HEAT INDEX
  VSB - VISIBILITY
$$



USA.gov is the U.S. government's official web portal to all federal, state and local government web resources and services.